This demonstration page uses our WeatherBlox Daily Observations layout. Learn more.

Hourly Observations for April 22, 2019

Temp ( °F °C ) Dew Point ( °F °C ) Humidity (%) Winds ( mph kmh ) Pressure ( in mb ) Visibility ( mi km ) Precip ( " mm )
12:15 am 00:15 Partly Cloudy 56 13.5 55 12.9 96 96 NNW 15 24 29.77 1008 10 16.0934 0 0
12:35 am 00:35 Clear 56 13.3 55 12.6 96 96 N 18 30 29.76 1008 10 16.0934 0 0
12:55 am 00:55 Clear 56 13.1 54 12.3 95 95 NNW 21 33 29.77 1008 10 16.0934 0 0
1:15 am 01:15 Partly Cloudy 55 12.7 54 12 96 96 NNW 18 30 29.79 1009 10 16.0934 0 0
1:35 am 01:35 Partly Cloudy 55 12.5 53 11.6 94 94 NNW 18 30 29.79 1009 10 16.0934 0 0
1:55 am 01:55 Mostly Cloudy 55 12.5 53 11.7 95 95 NW 15 24 29.81 1010 10 16.0934 0 0
2:15 am 02:15 Cloudy 55 12.5 52 11.3 92 92 NW 13 20 29.84 1011 10 16.0934 0 0
2:35 am 02:35 Cloudy 55 12.5 52 11.2 92 92 NNW 15 24 29.86 1011 10 16.0934 0 0
2:55 am 02:55 Cloudy 54 12.2 52 11 92 92 NNW 13 20 29.87 1012 10 16.0934 0 0
3:15 am 03:15 Cloudy 54 12 51 10.7 92 92 NNW 13 20 29.89 1012 10 16.0934 0 0
3:35 am 03:35 Cloudy 54 12 51 10.6 91 91 NNW 12 19 29.9 1012 10 16.0934 0 0
3:55 am 03:55 Cloudy 54 12 51 10.5 91 91 NNW 12 19 29.91 1013 10 16.0934 0 0
4:15 am 04:15 Cloudy 53 11.8 51 10.5 92 92 NNW 17 28 29.92 1013 10 16.0934 0 0
4:35 am 04:35 Cloudy 53 11.5 50 10 91 91 N 14 22 29.92 1013 10 16.0934 0 0
4:55 am 04:55 Cloudy 53 11.5 51 10.3 92 92 NNW 13 20 29.92 1013 10 16.0934 0 0
5:15 am 05:15 Cloudy 52 11.3 50 10 92 92 NNW 22 35 29.93 1014 10 16.0934 0 0
5:35 am 05:35 Cloudy 51 10.7 49 9.5 92 92 NNW 20 31 29.95 1014 10 16.0934 0 0
5:55 am 05:55 Cloudy 50 10.1 48 9.1 94 94 NNW 14 22 29.96 1015 10 16.0934 0 0
6:15 am 06:15 Cloudy 49 9.5 47 8.3 92 92 NNW 21 33 29.98 1015 10 16.0934 0 0
6:35 am 06:35 Cloudy 49 9.2 46 8 92 92 NNW 17 28 29.98 1015 10 16.0934 0 0
6:55 am 06:55 Cloudy 49 9.2 46 8 92 92 NNW 15 24 30 1016 10 16.0934 0 0
7:15 am 07:15 Cloudy 48 9.1 46 7.7 91 91 NNW 16 26 30 1016 10 16.0934 0 0
7:35 am 07:35 Cloudy 48 9.1 46 8 93 93 NNW 17 28 30.01 1016 10 16.0934 0 0
7:55 am 07:55 Cloudy 49 9.2 46 8 92 92 NNW 15 24 30.02 1017 10 16.0934 0 0
8:15 am 08:15 Cloudy 48 9.1 46 7.5 90 90 NNW 18 30 30.03 1017 10 16.0934 0 0
8:35 am 08:35 Cloudy 48 9 45 7.4 90 90 N 20 31 30.04 1017 10 16.0934 0 0
8:55 am 08:55 Cloudy 48 9.1 45 7.3 89 89 NNW 18 30 30.05 1018 10 16.0934 0 0
9:15 am 09:15 Cloudy 48 9.1 45 7.3 89 89 NNW 17 28 30.06 1018 10 16.0934 0 0
9:35 am 09:35 Cloudy 48 9.1 45 7.2 88 88 N 15 24 30.08 1019 10 16.0934 0 0
9:55 am 09:55 Cloudy 48 9 44 6.7 86 86 N 15 24 30.08 1019 10 16.0934 0 0
10:15 am 10:15 Cloudy 49 9.2 45 7 86 86 NNW 14 22 30.09 1019 10 16.0934 0 0
10:35 am 10:35 Cloudy 49 9.2 44 6.8 85 85 NNW 14 22 30.1 1019 10 16.0934 0 0
10:55 am 10:55 Cloudy 49 9.3 45 7 86 86 NNW 16 26 30.1 1019 10 16.0934 0 0
11:15 am 11:15 Cloudy 49 9.4 45 7 85 85 NNW 16 26 30.1 1019 10 16.0934 0 0
11:35 am 11:35 Cloudy 50 9.8 46 7.5 86 86 NNW 10 17 30.09 1019 10 16.0934 0 0
11:55 am 11:55 Cloudy 50 9.9 46 7.6 86 86 N 15 24 30.1 1019 10 16.0934 0 0
12:15 pm 12:15 Cloudy 50 10.1 46 7.8 86 86 N 14 22 30.11 1020 10 16.0934 0 0
12:35 pm 12:35 Cloudy 51 10.5 47 8.1 85 85 NNW 15 24 30.1 1019 10 16.0934 0 0
12:55 pm 12:55 Cloudy 52 11.3 47 8.3 82 82 N 15 24 30.09 1019 10 16.0934 0 0
1:15 pm 13:15 Cloudy 53 11.6 46 7.6 77 77 N 15 24 30.11 1020 10 16.0934 0 0
1:35 pm 13:35 Cloudy 55 12.6 46 7.8 73 73 N 18 30 30.09 1019 10 16.0934 0 0
1:55 pm 13:55 Cloudy 57 13.7 46 8 69 69 NNW 12 19 30.08 1019 10 16.0934 0 0
2:15 pm 14:15 Cloudy 59 14.9 45 7.2 60 60 N 20 31 30.07 1018 10 16.0934 0 0
2:35 pm 14:35 Partly Cloudy 60 15.5 44 6.4 55 55 N 15 24 30.05 1018 10 16.0934 0 0
2:55 pm 14:55 Sunny 61 16.2 43 6.2 52 52 N 20 31 30.05 1018 10 16.0934 0 0
3:15 pm 15:15 Sunny 61 16 41 5 48 48 N 18 30 30.05 1018 10 16.0934 0 0
3:35 pm 15:35 Sunny 62 16.5 41 5.1 47 47 N 18 30 30.05 1017 10 16.0934 0 0
3:55 pm 15:55 Sunny 62 16.5 40 4.7 46 46 N 21 33 30.05 1017 10 16.0934 0 0
4:15 pm 16:15 Sunny 62 16.6 40 4.5 45 45 N 17 28 30.05 1017 10 16.0934 0 0
4:35 pm 16:35 Sunny 62 16.8 40 4.3 44 44 N 21 33 30.04 1017 10 16.0934 0 0
4:55 pm 16:55 Sunny 62 16.6 39 3.8 43 43 NNW 20 31 30.07 1018 10 16.0934 0 0
5:15 pm 17:15 Sunny 62 16.5 38 3.2 41 41 N 20 31 30.07 1018 10 16.0934 0 0
5:35 pm 17:35 Sunny 62 16.5 35 1.6 37 37 N 21 33 30.07 1018 10 16.0934 0 0
5:55 pm 17:55 Sunny 62 16.6 36 2.2 38 38 N 20 31 30.07 1018 10 16.0934 0 0
6:15 pm 18:15 Sunny 61 16.2 36 2.2 39 39 N 17 28 30.08 1019 10 16.0934 0 0
6:35 pm 18:35 Sunny 61 16 36 2.1 39 39 N 17 28 30.07 1018 10 16.0934 0 0
6:55 pm 18:55 Sunny 60 15.7 36 2.1 40 40 N 15 24 30.07 1018 10 16.0934 0 0
7:15 pm 19:15 Sunny 59 15.1 35 1.5 40 40 N 17 28 30.08 1019 10 16.0934 0 0
7:35 pm 19:35 Sunny 58 14.5 33 0.8 40 40 N 13 20 30.08 1019 10 16.0934 0 0
7:55 pm 19:55 Sunny 56 13.5 36 2 46 46 N 15 24 30.09 1019 10 16.0934 0 0
8:15 pm 20:15 Sunny 54 12.1 37 2.5 52 52 N 9 15 30.11 1020 10 16.0934 0 0
8:35 pm 20:35 Clear 52 10.9 37 3 58 58 N 8 13 30.13 1020 10 16.0934 0 0
8:55 pm 20:55 Clear 49 9.6 38 3.1 64 64 NNE 7 11 30.16 1021 10 16.0934 0 0
9:15 pm 21:15 Clear 48 8.9 37 3 67 67 NNE 6 9 30.17 1022 10 16.0934 0 0
9:35 pm 21:35 Clear 48 8.7 37 3 68 68 Calm 30.18 1022 10 16.0934 0 0
9:55 pm 21:55 Clear 47 8.6 36 2.4 65 65 N 5 7 30.19 1022 10 16.0934 0 0
10:15 pm 22:15 Clear 50 9.9 35 1.6 57 57 N 5 7 30.18 1022 10 16.0934 0 0
10:35 pm 22:35 Clear 48 9 35 1.7 61 61 N 7 11 30.19 1022 10 16.0934 0 0
10:55 pm 22:55 Clear 48 9.1 35 1.8 61 61 N 6 9 30.2 1023 10 16.0934 0 0
11:15 pm 23:15 Clear 47 8.5 35 1.6 62 62 N 5 7 30.21 1023 10 16.0934 0 0
11:35 pm 23:35 Clear 47 8.4 35 1.6 63 63 N 10 17 30.2 1023 10 16.0934 0 0
11:55 pm 23:55 Clear 47 8.1 35 1.6 64 64 N 8 13 30.19 1022 10 16.0934 0 0

Powered by AerisWeather